TimeEDT,TemperatureF,Dew PointF,Humidity,Sea Level PressureIn,VisibilityMPH,Wind Direction,Wind SpeedMPH,Gust SpeedMPH,PrecipitationIn,Events,Conditions,WindDirDegrees,DateUTC
12:15 AM,69.8,69.8,100,30.30,4.0,Calm,Calm,-,N/A,,Clear,0,2013-07-18 04:15:00
12:35 AM,69.8,69.8,100,30.30,5.0,Calm,Calm,-,N/A,,Clear,0,2013-07-18 04:35:00
12:55 AM,69.8,69.8,100,30.31,4.0,Calm,Calm,-,N/A,,Clear,0,2013-07-18 04:55:00
1:15 AM,69.8,69.8,100,30.30,5.0,Calm,Calm,-,N/A,,Clear,0,2013-07-18 05:15:00
1:35 AM,71.6,71.6,100,30.30,4.0,Calm,Calm,-,N/A,,Scattered Clouds,0,2013-07-18 05:35:00
1:55 AM,71.6,71.6,100,30.30,4.0,Calm,Calm,-,N/A,,Scattered Clouds,0,2013-07-18 05:55:00
2:15 AM,69.8,69.8,100,30.29,5.0,Calm,Calm,-,N/A,,Scattered Clouds,0,2013-07-18 06:15:00
2:35 AM,69.8,69.8,100,30.29,4.0,Calm,Calm,-,N/A,,Clear,0,2013-07-18 06:35:00
2:55 AM,69.8,69.8,100,30.27,5.0,Calm,Calm,-,N/A,,Clear,0,2013-07-18 06:55:00
3:15 AM,69.8,69.8,100,30.27,4.0,Calm,Calm,-,N/A,,Clear,0,2013-07-18 07:15:00
3:35 AM,68.0,68.0,100,30.27,4.0,SSW,3.5,-,N/A,,Clear,210,2013-07-18 07:35:00
3:55 AM,68.0,68.0,100,30.27,5.0,Calm,Calm,-,N/A,,Clear,0,2013-07-18 07:55:00
4:15 AM,68.0,68.0,100,30.26,5.0,Calm,Calm,-,N/A,,Clear,0,2013-07-18 08:15:00
4:35 AM,68.0,68.0,100,30.26,4.0,Calm,Calm,-,N/A,,Clear,0,2013-07-18 08:35:00
4:55 AM,66.2,66.2,100,30.26,5.0,Calm,Calm,-,N/A,,Clear,0,2013-07-18 08:55:00
5:15 AM,66.2,66.2,100,30.26,5.0,Calm,Calm,-,N/A,,Clear,0,2013-07-18 09:15:00
5:35 AM,66.2,66.2,100,30.26,5.0,SSW,3.5,-,N/A,,Clear,210,2013-07-18 09:35:00
5:55 AM,66.2,66.2,100,30.27,5.0,Calm,Calm,-,N/A,,Clear,0,2013-07-18 09:55:00
6:15 AM,66.2,66.2,100,30.27,4.0,SW,3.5,-,N/A,,Clear,220,2013-07-18 10:15:00
6:35 AM,66.2,66.2,100,30.27,3.0,Calm,Calm,-,N/A,,Clear,0,2013-07-18 10:35:00
6:55 AM,66.2,66.2,100,30.27,1.8,Calm,Calm,-,N/A,,Mist,0,2013-07-18 10:55:00
7:15 AM,66.2,66.2,100,30.27,-9999.0,Calm,Calm,-,N/A,,Unknown,0,2013-07-18 11:15:00
7:35 AM,68.0,68.0,100,30.28,4.0,South,3.5,-,N/A,,Clear,180,2013-07-18 11:35:00
7:55 AM,69.8,69.8,100,30.29,5.0,SSW,3.5,-,N/A,,Clear,210,2013-07-18 11:55:00
8:15 AM,71.6,71.6,100,30.29,5.0,Calm,Calm,-,N/A,,Clear,0,2013-07-18 12:15:00
8:35 AM,71.6,71.6,100,30.29,7.0,Calm,Calm,-,N/A,,Clear,0,2013-07-18 12:35:00
8:55 AM,73.4,73.4,100,30.30,7.0,Calm,Calm,-,N/A,,Clear,0,2013-07-18 12:55:00
9:15 AM,73.4,73.4,100,30.30,7.0,Calm,Calm,-,N/A,,Clear,0,2013-07-18 13:15:00
9:35 AM,75.2,73.4,94,30.30,10.0,Calm,Calm,-,N/A,,Clear,0,2013-07-18 13:35:00
9:55 AM,75.2,73.4,94,30.29,10.0,Calm,Calm,-,N/A,,Clear,0,2013-07-18 13:55:00
10:15 AM,78.8,73.4,83,30.28,10.0,Calm,Calm,-,N/A,,Clear,0,2013-07-18 14:15:00
10:35 AM,78.8,73.4,83,30.29,10.0,Calm,Calm,-,N/A,,Clear,0,2013-07-18 14:35:00
10:55 AM,78.8,73.4,83,30.29,10.0,North,3.5,-,N/A,,Clear,10,2013-07-18 14:55:00
11:15 AM,80.6,73.4,79,30.29,10.0,Calm,Calm,-,N/A,,Clear,0,2013-07-18 15:15:00
11:35 AM,82.4,73.4,74,30.28,10.0,ENE,3.5,-,N/A,,Clear,70,2013-07-18 15:35:00
11:55 AM,82.4,73.4,74,30.28,10.0,North,3.5,-,N/A,,Clear,10,2013-07-18 15:55:00
12:15 PM,82.4,73.4,74,30.28,10.0,Calm,Calm,-,N/A,,Clear,0,2013-07-18 16:15:00
12:35 PM,82.4,71.6,70,30.28,10.0,Calm,Calm,-,N/A,,Clear,0,2013-07-18 16:35:00
12:55 PM,84.2,71.6,66,30.27,10.0,Calm,Calm,-,N/A,,Clear,0,2013-07-18 16:55:00
1:15 PM,86.0,71.6,62,30.27,10.0,SE,3.5,-,N/A,,Clear,140,2013-07-18 17:15:00
1:35 PM,86.0,69.8,58,30.26,10.0,Calm,Calm,-,N/A,,Clear,0,2013-07-18 17:35:00
1:55 PM,86.0,68.0,55,30.26,10.0,Calm,Calm,-,N/A,,Clear,0,2013-07-18 17:55:00
2:15 PM,87.8,68.0,52,30.25,10.0,NNE,3.5,-,N/A,,Clear,20,2013-07-18 18:15:00
2:35 PM,87.8,68.0,52,30.24,10.0,Calm,Calm,-,N/A,,Clear,0,2013-07-18 18:35:00
2:55 PM,87.8,71.6,58,30.23,10.0,NNE,3.5,-,N/A,,Clear,20,2013-07-18 18:55:00
3:15 PM,87.8,71.6,58,30.22,10.0,ENE,4.6,-,N/A,,Clear,60,2013-07-18 19:15:00
3:35 PM,87.8,69.8,55,30.21,10.0,East,3.5,-,N/A,,Clear,100,2013-07-18 19:35:00
3:55 PM,87.8,71.6,58,30.21,10.0,SE,4.6,-,N/A,,Clear,130,2013-07-18 19:55:00
4:15 PM,87.8,71.6,58,30.21,10.0,ESE,4.6,-,N/A,,Clear,120,2013-07-18 20:15:00
4:35 PM,87.8,69.8,55,30.20,10.0,Calm,Calm,-,N/A,Thunderstorm,Clear,0,2013-07-18 20:35:00
4:55 PM,86.0,69.8,58,30.19,10.0,East,4.6,-,N/A,Thunderstorm,Clear,90,2013-07-18 20:55:00
5:15 PM,86.0,71.6,62,30.19,10.0,East,3.5,-,N/A,,Clear,80,2013-07-18 21:15:00
6:15 PM,86.0,69.8,58,30.18,10.0,Calm,Calm,-,N/A,,Clear,0,2013-07-18 22:15:00
6:35 PM,84.2,71.6,66,30.18,10.0,Calm,Calm,-,N/A,,Clear,0,2013-07-18 22:35:00
6:55 PM,84.2,71.6,66,30.18,10.0,Calm,Calm,-,N/A,,Clear,0,2013-07-18 22:55:00
7:15 PM,84.2,71.6,66,30.19,10.0,Calm,Calm,-,N/A,,Clear,0,2013-07-18 23:15:00
7:35 PM,82.4,73.4,74,30.19,10.0,East,3.5,-,N/A,,Clear,100,2013-07-18 23:35:00
7:55 PM,80.6,73.4,79,30.19,10.0,Calm,Calm,-,N/A,,Clear,0,2013-07-18 23:55:00
8:15 PM,80.6,73.4,79,30.19,10.0,Calm,Calm,-,N/A,,Clear,0,2013-07-19 00:15:00
8:35 PM,80.6,73.4,79,30.19,10.0,Calm,Calm,-,N/A,,Clear,0,2013-07-19 00:35:00
8:55 PM,78.8,73.4,83,30.19,10.0,East,3.5,-,N/A,,Clear,90,2013-07-19 00:55:00
9:15 PM,78.8,73.4,83,30.19,10.0,Calm,Calm,-,N/A,,Clear,0,2013-07-19 01:15:00
9:35 PM,78.8,71.6,78,30.20,10.0,Calm,Calm,-,N/A,,Clear,0,2013-07-19 01:35:00
9:55 PM,75.2,73.4,94,30.21,10.0,West,3.5,-,N/A,,Clear,280,2013-07-19 01:55:00
10:15 PM,75.2,73.4,94,30.21,10.0,Calm,Calm,-,N/A,,Clear,0,2013-07-19 02:15:00
10:35 PM,75.2,73.4,94,30.22,7.0,Calm,Calm,-,N/A,,Scattered Clouds,0,2013-07-19 02:35:00
10:55 PM,75.2,73.4,94,30.22,10.0,Calm,Calm,-,N/A,,Scattered Clouds,0,2013-07-19 02:55:00
11:15 PM,75.2,73.4,94,30.22,7.0,Calm,Calm,-,N/A,,Scattered Clouds,0,2013-07-19 03:15:00
11:35 PM,75.2,73.4,94,30.22,5.0,Calm,Calm,-,N/A,,Scattered Clouds,0,2013-07-19 03:35:00
11:55 PM,75.2,75.2,100,30.21,4.0,Calm,Calm,-,N/A,,Clear,0,2013-07-19 03:55:00